Preview of NWS' New Version of Forecast
This preview is not operational and should not be used for support decisions.

Regional Weather Roundup (RWR)

Issued by National Weather Service (NWS)

                            
000
ASUS43 KDTX 221810
RWRMI 
MICHIGAN HOURLY REGIONAL WEATHER ROUNDUP
NATIONAL WEATHER SERVICE DETROIT/PONTIAC MI
200 PM EDT MON JUL 22 2019

NOTE: "FAIR" INDICATES FEW OR NO CLOUDS BELOW 12,000 FEET WITH NO
SIGNIFICANT WEATHER AND/OR OBSTRUCTION TO VISIBILITY.

MIZ047>049-052>055-059>063-066>070-074>076-081>083-221900-
SOUTHEAST LOWER MICHIGAN
  
CITY           SKY/WX    TMP DP  RH WIND       PRES   REMARKS
ADRIAN         PTSUNNY   73  60  63 N8        29.97S                  
6HR MIN TEMP:  65; 6HR MAX TEMP:  74;                                

ALMA           CLOUDY    74  53  47 N9        30.01S                  
6HR MIN TEMP:  63; 6HR MAX TEMP:  74;                                

ANN ARBOR        N/A    N/A N/A N/A MISG      29.96S                  
BAD AXE        FAIR      71  55  56 N16G22    29.97R                  
6HR MIN TEMP:  63; 6HR MAX TEMP:  71;                                

CARO           PTSUNNY   74  59  59 N8        29.97S                  
DETROIT CITY   CLOUDY    75  58  55 NW9       29.94S                  
6HR MIN TEMP:  67; 6HR MAX TEMP:  78;                                

DETROIT        CLOUDY    75  60  59 NW15      29.94F                  
6HR MIN TEMP:  67; 6HR MAX TEMP:  77;                                

FLINT          FAIR      74  53  48 N15       29.98F                  
6HR MIN TEMP:  66; 6HR MAX TEMP:  74;                                

GROSSE ILE     FAIR      75  59  56 NW6       29.93S                  
6HR MIN TEMP:  67; 6HR MAX TEMP:  76;                                

HILLSDALE      FAIR      72  59  63 N10       29.98F                  
6HR MIN TEMP:  63; 6HR MAX TEMP:  73;                                

HOWELL         FAIR      71  49  44 NW12      29.98F                  
6HR MIN TEMP:  64; 6HR MAX TEMP:  72;                                


CITY           SKY/WX    TMP DP  RH WIND       PRES   REMARKS
JACKSON        FAIR      72  56  57 W8        29.98F                  
6HR MIN TEMP:  67; 6HR MAX TEMP:  73;                                

LAMBERTVILLE   FAIR     N/A N/A N/A N7        29.95S                  
LANSING        FAIR      72  55  55 N9G18     30.00S                  
6HR MIN TEMP:  64; 6HR MAX TEMP:  73;                                

LAPEER         FAIR      73  55  53 N7        29.98F                  
6HR MIN TEMP:  64; 6HR MAX TEMP:  75;                                

MASON          FAIR      72  56  56 NW12G20   29.99S                  
6HR MIN TEMP:  65; 6HR MAX TEMP:  73;                                

MONROE         FAIR      75  62  64 NW7       29.94S                  
MT. CLEMENS    PTSUNNY   77  59  53 N14       29.94S                  
PONTIAC        FAIR      73  54  51 NW12      29.94F                  
6HR MIN TEMP:  64; 6HR MAX TEMP:  75;                                

PORT HOPE        N/A     70  59  68 N8        29.96R                  
6HR MIN TEMP:  65; 6HR MAX TEMP:  70;                                

PORT HURON     FAIR      75  55  50 NW10G18   29.94S                  
TRI CITIES     CLOUDY    73  59  61 NE8       30.00S                  
6HR MIN TEMP:  63; 6HR MAX TEMP:  74;                                

MIDLAND        CLOUDY    76  56  50 N6        29.99S                  
6HR MIN TEMP:  62; 6HR MAX TEMP:  76;                                

TROY           FAIR      74  53  48 NW9       29.97S                  
SAGINAW HB     PTSUNNY   73  55  53 NE15G22   29.99S                  
$$
MIZ043>046-050>051-056>058-064>065-071>073-077>080-221900-
SOUTHWEST LOWER MICHIGAN
  
CITY           SKY/WX    TMP DP  RH WIND       PRES   REMARKS
BATTLE CREEK   FAIR      73  54  51 N13G20    30.00F                  
6HR MIN TEMP:  64; 6HR MAX TEMP:  74;                                

BENTON HARBOR  FAIR      71  58  63 VRB6G25   30.03S                  
6HR MIN TEMP:  66; 6HR MAX TEMP:  71;                                

BIG RAPIDS     FAIR      74  50  43 N13G18    30.02S                  
COLDWATER      FAIR      71  59  66 NW7       29.99S                  
FREMONT        PTSUNNY   75  48  38 N12G18    30.03S                  
6HR MIN TEMP:  60; 6HR MAX TEMP:  75;                                

HOLLAND        PTSUNNY   76  58  53 N10G18    30.02F                  
6HR MIN TEMP:  64; 6HR MAX TEMP:  76;                                

GRAND RAPIDS   FAIR      75  57  53 N13G23    30.01F                  
6HR MIN TEMP:  64; 6HR MAX TEMP:  75;                                

IONIA          PTSUNNY   72  54  53 N10       30.00S                  
KALAMAZOO      FAIR      74  54  49 N16G25    30.00F                  
6HR MIN TEMP:  65; 6HR MAX TEMP:  74;                                

LUDINGTON      FAIR      71  54  54 N14       30.06S                  
6HR MIN TEMP:  62; 6HR MAX TEMP:  72;                                

MARSHALL         N/A    N/A N/A N/A MISG        N/A                   
MOUNT PLEASANT PTSUNNY   74  54  49 N9        29.99F                  
6HR MIN TEMP:  61; 6HR MAX TEMP:  76;                                

MUSKEGON       FAIR      75  54  47 N15       30.03S                  
SOUTH HAVEN    FAIR      71  59  65 N14G23    30.02F                  
$$
MIZ016>042-221900-
NORTHERN LOWER MICHIGAN
  
CITY           SKY/WX    TMP DP  RH WIND       PRES   REMARKS
ALPENA         FAIR      77  42  28 N15G23    30.01S                  
6HR MIN TEMP:  60; 6HR MAX TEMP:  77;                                

BEAVER ISLAND  FAIR      74  50  43 W8        30.05F                  
6HR MIN TEMP:  58; 6HR MAX TEMP:  74;                                

BELLAIRE       FAIR      76  45  33 N7        30.04S                  
CADILLAC       FAIR      74  39  29 N17G23    30.04S                  
CHARLEVOIX     FAIR      72  53  50 NW7       30.08S                  
6HR MIN TEMP:  64; 6HR MAX TEMP:  72;                                

FRANKFORT      FAIR      73  53  50 NW10      30.07S                  
GAYLORD        FAIR      71  44  37 NW8G17    30.04S                  
6HR MIN TEMP:  57; 6HR MAX TEMP:  71;                                

GRAYLING       FAIR      73  44  34 N12G17    30.02S                  
6HR MIN TEMP:  56; 6HR MAX TEMP:  74;                                

HARBOR SPRINGS FAIR      76  43  30 N7        30.03F                  
HOUGHTON LAKE  FAIR      74  47  38 N12G22    30.03S                  
6HR MIN TEMP:  57; 6HR MAX TEMP:  74;                                

MANISTEE       FAIR      71  56  58 NW16      30.06S                  
OSCODA         FAIR      75  49  39 NE15G21   29.98S                  
6HR MIN TEMP:  59; 6HR MAX TEMP:  75;                                

PELLSTON       FAIR      75  48  38 W9G17     30.03F                  
6HR MIN TEMP:  57; 6HR MAX TEMP:  75;                                

ROGERS CITY    FAIR      72  47  41 N7        30.03S                  
TRAVERSE CITY  FAIR      74  48  39 N10G21    30.04S                  
6HR MIN TEMP:  62; 6HR MAX TEMP:  74;                                

$$
MIZ007>008-015-221900-
EASTERN UPPER MICHIGAN
  
CITY           SKY/WX    TMP DP  RH WIND       PRES   REMARKS
KINROSS        FAIR      74  45  35 NW16G22   30.01F                  
6HR MIN TEMP:  56; 6HR MAX TEMP:  75;                                

MACKINAC ISLAN FAIR      73  46  39 W6        30.02S                  
6HR MIN TEMP:  56; 6HR MAX TEMP:  73;                                

NEWBERRY       FAIR      77  40  26 W8G16     30.02F                  
6HR MIN TEMP:  55; 6HR MAX TEMP:  77;                                

S. S. MARIE    FAIR      74  53  48 NW9G18    30.01S                  
6HR MIN TEMP:  59; 6HR MAX TEMP:  74;                                

MUNISING         N/A     68  54  60 NW16G23   30.07R                  
6HR MIN TEMP:  61; 6HR MAX TEMP:  71;                                

$$
MIZ004>006-011>014-085-221900-
CENTRAL UPPER MICHIGAN
  
CITY           SKY/WX    TMP DP  RH WIND       PRES   REMARKS
MANISTIQUE     FAIR      78  45  31 N6G16     30.03F                  
6HR MIN TEMP:  57; 6HR MAX TEMP:  78;                                

ESCANABA       FAIR      76  47  35 VRB7      30.06F                  
6HR MIN TEMP:  57; 6HR MAX TEMP:  77;                                

MENOMINEE        N/A     74  49  41 NW9       30.09F                  
6HR MIN TEMP:  58; 6HR MAX TEMP:  74;                                

SAWYER-GWINN   PTSUNNY   72  52  49 NE15      30.07S                  
$$
MIZ001>003-009>011-084-221900-
WESTERN UPPER MICHIGAN
  
CITY           SKY/WX    TMP DP  RH WIND       PRES   REMARKS
IRON MOUNTAIN  FAIR      77  47  34 N9G18     30.09F                  
6HR MIN TEMP:  56; 6HR MAX TEMP:  77;                                

HOUGHTON       FAIR      70  52  52 NW8G20    30.11R                  
6HR MIN TEMP:  58; 6HR MAX TEMP:  70;                                

COPPER HARBOR    N/A     67  56  67 N14       30.08S                  
6HR MIN TEMP:  64; 6HR MAX TEMP:  68;                                

IRONWOOD       FAIR      72  55  55 NW12      30.16S                  
6HR MIN TEMP:  53; 6HR MAX TEMP:  72;                                

$$

ABBREVIATIONS USED IN REMARKS
   TC - TEMPERATURE IN CELSIUS
  WCI - WIND CHILL INDEX
   HX - HEAT INDEX
  VSB - VISIBILITY